Terminal Aerodrome Forecast
Issued by NWS Pocatello, ID

Home | Current Version | Previous Version | Text Only | Print | Product List | Glossary On
Versions: 1 2 3 4 5 6 7 8 9 10 11 12 13 14 15
000
FTUS45 KPIH 021100
TAFBYI
TAF
KBYI 021120Z 0212/0312 21008KT P6SM SKC
     FM021800 26014G22KT P6SM SCT150
     FM030200 23009KT P6SM SKC=

USA.gov is the U.S. government's official web portal to all federal, state and local government web resources and services.